Weather History for La Paz, Mexico

Change the Weather History Date:

Sunday, September 8, 2013

  Actual Average Record
Temperature  
Mean Temperature 86 °F -  
Max Temperature 95 °F 93 °F 102 °F (2011)
Min Temperature 76 °F 72 °F 71 °F (2001)
Cooling Degree Days 20    
Growing Degree Days 36 (Base 50)    
Moisture  
Dew Point 74 °F    
Average Humidity 75    
Maximum Humidity 92    
Minimum Humidity 45    
Precipitation  
Precipitation 0.12 in - - ()
Sea Level Pressure  
Sea Level Pressure 29.79 in    
Wind  
Wind Speed 3 mph ()    
Max Wind Speed 12 mph    
Max Gust Speed -    
Visibility 10.2 miles    
Events Rain    
Averages and records for this station are not official NWS values.
T = Trace of Precipitation, MM = Missing Value Source: Averaged Metar Reports

Daily Weather History Graph

Daily Weather History Graph

Search for Another Location

Airport:

Trip Planner

Search our weather history database for the weather conditions in past years. The results will help you decide how hot, cold, wet, or windy it might be!

Date:

Astronomy

Sep. 08, 2013 Rise Set
Actual Time 7:05 AM MDT 7:32 PM MDT
Civil Twilight 6:42 AM MDT 7:54 PM MDT
Nautical Twilight 6:15 AM MDT 8:21 PM MDT
Astronomical Twilight 5:48 AM MDT 8:48 PM MDT
Moon 9:59 AM MDT (9/8) 9:39 PM MDT (9/8)
Length of Visible Light 13h 12m
Length of Day
12h 26m
Waxing Crescent, 11% of the Moon is Illuminated
Sep 8
Waxing Crescent
Sep 12
First Quarter
Sep 19
Full
Sep 26
Last Quarter
Oct 4
New

Hourly Weather History & Observations

Time (MDT) Temp. Heat Index Dew Point Humidity Pressure Visibility Wind Dir Wind Speed Gust Speed Precip Events Conditions
5:48 AM 77.0 °F - 73.4 °F 89% 29.84 in 10.0 mi Calm Calm - N/A   Mostly Cloudy
5:50 AM 77 °F - 75 °F 92% 29.78 in 2 mi South 2.2 mph - -   Partly Cloudy
6:41 AM 77.0 °F - 73.4 °F 89% 29.80 in 10.0 mi SE 4.6 mph - N/A   Mostly Cloudy
7:42 AM 77.0 °F - 73.4 °F 89% 29.80 in 10.0 mi SSE 2.3 mph - N/A   Mostly Cloudy
8:44 AM 78.8 °F - 75.2 °F 89% 29.86 in 10.0 mi SE 4.6 mph - N/A   Mostly Cloudy
8:50 AM 80 °F - 76 °F 84% 29.81 in 12 mi SE 2.2 mph - -   Partly Cloudy
9:42 AM 82.4 °F 88.2 °F 73.4 °F 74% 29.82 in 10.0 mi Calm Calm - N/A   Mostly Cloudy
10:47 AM 84.2 °F 89.6 °F 71.6 °F 66% 29.82 in 10.0 mi Calm Calm - N/A   Mostly Cloudy
11:50 AM 88 °F - 75 °F 57% 29.79 in 19 mi NW 2.2 mph - -   Scattered Clouds
11:50 AM 86.0 °F 91.8 °F 71.6 °F 62% 29.85 in 10.0 mi NW 4.6 mph - N/A   Scattered Clouds
12:49 PM 86.0 °F 91.8 °F 71.6 °F 62% 29.78 in 10.0 mi NNW 5.8 mph - N/A   Scattered Clouds
1:40 PM 87.8 °F 93.8 °F 71.6 °F 58% 29.77 in 10.0 mi NNE 9.2 mph - N/A   Mostly Cloudy
2:50 PM 94 °F - 75 °F 45% 29.73 in 19 mi North 4.5 mph - -   Scattered Clouds
2:55 PM 89.6 °F 93.4 °F 68.0 °F 49% 29.83 in 10.0 mi East 6.9 mph - N/A   Mostly Cloudy
3:46 PM 86.0 °F 91.8 °F 71.6 °F 62% 29.71 in 10.0 mi East 9.2 mph - N/A   Mostly Cloudy
4:46 PM 80.6 °F 85.4 °F 73.4 °F 79% 29.72 in 10.0 mi WSW 11.5 mph - N/A   Mostly Cloudy
5:44 PM 78.8 °F - 75.2 °F 89% 29.83 in 10.0 mi South 6.9 mph - N/A   Mostly Cloudy
5:50 PM 83 °F - 76 °F 75% 29.72 in 19 mi South 6.7 mph - -   Partly Cloudy
6:44 PM 80.6 °F 86.2 °F 75.2 °F 84% 29.72 in 10.0 mi Calm Calm - N/A   Mostly Cloudy
7:49 PM 82.4 °F 89.5 °F 75.2 °F 79% 29.74 in 10.0 mi South 6.9 mph - N/A   Overcast
8:44 PM 80.6 °F 85.4 °F 73.4 °F 79% 29.90 in 10.0 mi Calm Calm - N/A   Overcast
8:50 PM 82 °F - 76 °F 78% 29.75 in 2 mi SW 4.5 mph - - Rain Light Rain
9:44 PM 80.6 °F 85.4 °F 73.4 °F 79% 29.79 in 10.0 mi Calm Calm - N/A   Overcast
10:41 PM 80.6 °F 85.4 °F 73.4 °F 79% 29.80 in 10.0 mi Calm Calm - N/A   Overcast
11:45 PM 80 °F - 76 °F 84% 29.77 in 2 mi South 4.5 mph - -   Mostly Cloudy